Notices

What's New in latest Release from April 7th, 2021:

- Updated Glossary, including Speed of Maximum Gust, and Total Hourly Precipitation

- Updated national and regional climate services offices contacts and prices information

- Addition of station inventory lists for 1981-2010, 1971-2000, and 1961-1990 Normals.

If you haven't already, please take our survey and provide feedback about our website: https://eccc.sondage-survey.ca/f/LanguageSelection.aspx?s=442ca660-fcf1-47c0-95a9-59707d6fd709

Hourly Data Report for April 19, 2018

MIRAMICHI RCS
NEW BRUNSWICK
Current Station Operator: ECCC - MSC

47°00'34.000" N
65°27'54.000" W
33.00 m
8100989
71744
ACQ

Download Data

Hourly Data (April 2018)
Hourly Data Report for April 19, 2018
TIME
LST
Temp Definition
°C
Dew Point Definition
°C
Rel Hum Definition
%
Precip. Amount Definition
mm

Wind Dir Definition
10's deg

Wind Spd Definition
km/h
Visibility Definition
km
Stn Press Definition
kPa
Hmdx Definition


Wind Chill Definition


Weather Definition


00:00 2.1 0.4 89 0.0 24 10   99.47     LegendNANA
01:00 1.5 0.2 91 0.0 23 13   99.50     LegendNANA
02:00 1.6 0.1 90 0.0 24 14   99.52     LegendNANA
03:00 0.8 -0.3 92 0.0 25 7   99.56     LegendNANA
04:00 0.0 -0.7 95 0.0 28 5   99.60   -2 LegendNANA
05:00 0.5 -0.3 94 0.0 24 11   99.63     LegendNANA
06:00 0.8 -0.1 94 0.0 24 4   99.68     LegendNANA
07:00 1.6 0.4 91 0.0 26 7   99.78     LegendNANA
08:00 2.5 0.8 89 0.0 25 7   99.88     LegendNANA
09:00 5.0 0.0 70 0.0 26 8   99.91     LegendNANA
10:00 6.7 -0.5 60 0.0 26 5   99.93     LegendNANA
11:00 7.3 -0.7 57 0.0 19 2   99.98     LegendNANA
12:00 6.3 -0.7 61 0.0 22 12   99.98     LegendNANA
13:00 7.4 -0.9 56 0.0 23 9   99.99     LegendNANA
14:00 8.6 -1.0 51 0.0 17 6   100.02     LegendNANA
15:00 6.4 -0.9 60 0.0 6 19   100.00     LegendNANA
16:00 5.2 -0.1 69 0.0 7 16   100.08     LegendNANA
17:00 4.7 0.2 73 0.0 8 21   100.06     LegendNANA
18:00 2.4 -0.4 82 0.0 6 18   100.12     LegendNANA
19:00 1.3 0.0 91 0.0 6 17   100.15     LegendNANA
20:00 1.1 -0.3 91 0.0 8 15   100.26     LegendNANA
21:00 0.7 -0.3 93 0.0 7 17   100.30     LegendNANA
22:00 0.2 -0.5 95 0.0 6 13   100.28     LegendNANA
23:00 0.1 -0.4 96 0.2 6 10   100.25     LegendNANA

Notes on Data Quality.

Legend

  • E = Estimated
  • M = Missing
  • NA = Not Available*
  • [empty] = Indicates an unobserved value
Date modified: